Regional Weather Roundup
Issued by NWS

Home | Current Version | Previous Version | Graphics & Text | Print | Product List | Glossary On
Versions: 1 2 3 4 5 6 7 8 9 10 11 12 13 14 15 16 17 18 19 20 21 22 23 24 25 26 27 28 29 30 31 32 33 34 35 36 37 38 39 40 41 42 43 44 45 46 47 48 49 50
000
ASUS43 KBIS 280002
RWRND

NORTH DAKOTA REGIONAL WEATHER ROUNDUP
NATIONAL WEATHER SERVICE BISMARCK ND
700 PM CDT THU AUG 27 2015

NOTE: "FAIR" INDICATES FEW OR NO CLOUDS BELOW 12,000 FEET WITH NO
SIGNIFICANT WEATHER AND/OR OBSTRUCTIONS TO VISIBILITY.


NDZ001>003-009>011-017-280100-
NORTHWEST NORTH DAKOTA

CITY           SKY/WX    TMP DP  RH WIND       PRES   REMARKS
WILLISTON      PTSUNNY   85  64  49 CALM      29.88S
6HR MIN TEMP:  78; 6HR MAX TEMP:  86;

MINOT          SUNNY     81  64  56 S6        29.87F
MINOT AFB      SUNNY     82  69  64 SE7       29.86F
$$

NDZ018>021-031>035-040>046-280100-
SOUTHWEST NORTH DAKOTA

CITY           SKY/WX    TMP DP  RH WIND       PRES   REMARKS
BISMARCK       MOSUNNY   82  65  56 SE8       29.92S
6HR MIN TEMP:  75; 6HR MAX TEMP:  86;

DICKINSON      SUNNY     84  58  40 E14       29.91S
GARRISON         N/A     82  64  54 SE3       29.89F
6HR MIN TEMP:  77; 6HR MAX TEMP:  84;

HETTINGER ARPT MOSUNNY   81  57  43 SE14      29.95R
$$

NDZ004>008-012>016-024-026-027-054-280100-
NORTHEAST NORTH DAKOTA

CITY           SKY/WX    TMP DP  RH WIND       PRES   REMARKS
GRAND FORKS    PTSUNNY   75  65  70 S5        29.90S
GRND FRKS AFB  MOSUNNY   75  65  72 S5        29.91S
DEVILS LAKE    PTSUNNY   77  63  61 SE7       29.89F
$$

NDZ022-023-025-028>030-036>039-047>053-280100-
SOUTHEAST NORTH DAKOTA

CITY           SKY/WX    TMP DP  RH WIND       PRES   REMARKS
FARGO          CLOUDY    78  65  63 S5        29.91F
6HR MIN TEMP:  75; 6HR MAX TEMP:  79;

JAMESTOWN      PTSUNNY   77  68  73 S5        29.92F
$$




USA.gov is the U.S. government's official web portal to all federal, state and local government web resources and services.